Radiation Dose at Monitoring Post of Fukushima Daini Nuclear Power Station
Date,Time,MP-1(microSv/h),MP-2(microSv/h),MP-3(microSv/h),MP-4(microSv/h),MP-5(microSv/h),MP-6(microSv/h),MP-7(microSv/h),Wind Direction,Wind Velocity(m/s),Rain
2023/05/04,00:00,0.150,0.136,0.217,0.212,0.213,0.121,0.077,southwest,5.4,No
2023/05/04,00:10,0.151,0.136,0.216,0.213,0.213,0.120,0.077,southwest,3.4,No
2023/05/04,00:20,0.149,0.137,0.218,0.212,0.214,0.120,0.077,south-southwest,2.3,No
2023/05/04,00:30,0.151,0.137,0.216,0.213,0.212,0.121,0.077,southwest,3.7,No
2023/05/04,00:40,0.150,0.137,0.216,0.212,0.214,0.120,0.077,southwest,5.0,No
2023/05/04,00:50,0.150,0.138,0.216,0.213,0.212,0.120,0.077,west-southwest,5.2,No
2023/05/04,01:00,0.151,0.136,0.216,0.212,0.215,0.121,0.077,west-southwest,4.9,No
2023/05/04,01:10,0.151,0.137,0.216,0.211,0.213,0.119,0.077,west-southwest,4.0,No
2023/05/04,01:20,0.151,0.137,0.216,0.213,0.214,0.120,0.077,west-southwest,3.1,No
2023/05/04,01:30,0.150,0.137,0.216,0.211,0.213,0.121,0.078,west-northwest,2.2,No
2023/05/04,01:40,0.151,0.136,0.216,0.212,0.213,0.121,0.077,west-southwest,2.2,No
2023/05/04,01:50,0.151,0.136,0.215,0.212,0.212,0.121,0.077,south-southwest,1.7,No
2023/05/04,02:00,0.150,0.136,0.216,0.213,0.212,0.121,0.077,west-southwest,2.0,No
2023/05/04,02:10,0.151,0.136,0.217,0.211,0.213,0.122,0.077,west-southwest,3.4,No
2023/05/04,02:20,0.150,0.136,0.216,0.211,0.213,0.121,0.077,west,3.2,No
2023/05/04,02:30,0.151,0.136,0.216,0.213,0.213,0.121,0.077,west-southwest,3.9,No
2023/05/04,02:40,0.150,0.136,0.216,0.212,0.212,0.121,0.077,west-southwest,4.1,No
2023/05/04,02:50,0.150,0.138,0.216,0.213,0.213,0.122,0.077,west,3.9,No
2023/05/04,03:00,0.150,0.136,0.216,0.212,0.214,0.121,0.077,west,2.3,No
2023/05/04,03:10,0.149,0.137,0.217,0.212,0.212,0.120,0.077,west-northwest,1.4,No
2023/05/04,03:20,0.150,0.136,0.217,0.213,0.214,0.120,0.078,west-southwest,1.9,No
2023/05/04,03:30,0.151,0.136,0.218,0.213,0.212,0.121,0.077,west-southwest,1.7,No
2023/05/04,03:40,0.150,0.138,0.216,0.213,0.214,0.122,0.077,west,1.1,No
2023/05/04,03:50,0.151,0.136,0.217,0.213,0.213,0.120,0.077,west-northwest,2.6,No
2023/05/04,04:00,0.151,0.136,0.217,0.211,0.212,0.121,0.078,west-northwest,2.4,No
2023/05/04,04:10,0.151,0.136,0.217,0.213,0.214,0.121,0.077,north,1.7,No
2023/05/04,04:20,0.152,0.137,0.215,0.213,0.212,0.121,0.077,north-northwest,1.3,No
2023/05/04,04:30,0.150,0.135,0.216,0.213,0.214,0.121,0.078,west,0.9,No
2023/05/04,04:40,0.150,0.136,0.216,0.212,0.213,0.120,0.078,west,1.8,No
2023/05/04,04:50,0.151,0.136,0.215,0.212,0.211,0.120,0.077,west,2.0,No
2023/05/04,05:00,0.151,0.136,0.217,0.213,0.214,0.120,0.077,northwest,1.2,No
2023/05/04,05:10,0.150,0.137,0.216,0.213,0.213,0.121,0.077,north,0.8,No
2023/05/04,05:20,0.151,0.137,0.216,0.213,0.212,0.120,0.077,-,CALM,No
2023/05/04,05:30,0.150,0.136,0.216,0.213,0.212,0.122,0.078,-,CALM,No
2023/05/04,05:40,0.150,0.136,0.217,0.212,0.212,0.120,0.078,north,1.4,No
2023/05/04,05:50,0.150,0.138,0.216,0.212,0.214,0.121,0.077,north,2.0,No
2023/05/04,06:00,0.150,0.137,0.216,0.212,0.211,0.120,0.078,north-northeast,2.8,No
2023/05/04,06:10,0.150,0.137,0.217,0.213,0.214,0.121,0.077,north,2.6,No
2023/05/04,06:20,0.150,0.136,0.217,0.211,0.211,0.121,0.078,north,3.1,No
2023/05/04,06:30,0.150,0.137,0.216,0.210,0.213,0.120,0.077,north-northwest,3.0,No
2023/05/04,06:40,0.151,0.137,0.217,0.211,0.212,0.121,0.077,north-northwest,2.6,No
2023/05/04,06:50,0.151,0.136,0.216,0.211,0.213,0.120,0.077,north-northwest,2.7,No
2023/05/04,07:00,0.151,0.136,0.217,0.211,0.213,0.120,0.077,northwest,1.6,No
2023/05/04,07:10,0.150,0.137,0.216,0.210,0.213,0.121,0.077,north-northwest,1.2,No
2023/05/04,07:20,0.151,0.136,0.215,0.213,0.211,0.121,0.077,north-northeast,0.8,No
2023/05/04,07:30,0.150,0.137,0.214,0.211,0.214,0.121,0.077,east,0.7,No
2023/05/04,07:40,0.152,0.136,0.216,0.210,0.212,0.120,0.077,-,CALM,No
2023/05/04,07:50,0.150,0.136,0.215,0.211,0.215,0.120,0.077,east-southeast,1.7,No
2023/05/04,08:00,0.151,0.137,0.212,0.212,0.212,0.121,0.078,southeast,1.0,No
2023/05/04,08:10,0.149,0.136,0.215,0.210,0.214,0.122,0.078,east-southeast,1.0,No
2023/05/04,08:20,0.151,0.136,0.216,0.211,0.213,0.120,0.078,east-southeast,1.1,No
2023/05/04,08:30,0.152,0.137,0.216,0.213,0.211,0.122,0.079,-,CALM,No
2023/05/04,08:40,0.150,0.137,0.214,0.213,0.215,0.121,0.078,east-southeast,1.0,No
2023/05/04,08:50,0.151,0.137,0.213,0.210,0.213,0.120,0.077,south,0.7,No
2023/05/04,09:00,0.151,0.137,0.215,0.211,0.211,0.122,0.077,south-southwest,1.2,No
2023/05/04,09:10,0.149,0.137,0.217,0.213,0.211,0.121,0.078,south-southeast,1.6,No
2023/05/04,09:20,0.150,0.135,0.216,0.213,0.213,0.120,0.077,southeast,2.8,No
2023/05/04,09:30,0.151,0.136,0.215,0.213,0.213,0.120,0.078,south-southeast,2.4,No
2023/05/04,09:40,0.151,0.136,0.214,0.210,0.211,0.122,0.077,southeast,3.3,No
2023/05/04,09:50,0.148,0.136,0.214,0.209,0.212,0.121,0.078,south-southeast,3.7,No
2023/05/04,10:00,0.148,0.136,0.215,0.210,0.214,0.120,0.077,south-southeast,3.0,No
2023/05/04,10:10,0.149,0.135,0.214,0.210,0.214,0.121,0.078,south-southeast,3.6,No
2023/05/04,10:20,0.151,0.136,0.213,0.210,0.212,0.121,0.076,southeast,4.6,No
2023/05/04,10:30,0.151,0.137,0.214,0.209,0.211,0.121,0.077,south-southeast,4.4,No
2023/05/04,10:40,0.149,0.136,0.214,0.212,0.211,0.120,0.077,south-southeast,5.1,No
2023/05/04,10:50,0.148,0.136,0.214,0.214,0.209,0.120,0.078,south-southeast,4.5,No
2023/05/04,11:00,0.149,0.135,0.215,0.213,0.212,0.121,0.077,south-southeast,3.7,No
2023/05/04,11:10,0.148,0.135,0.215,0.213,0.214,0.120,0.077,south-southeast,4.4,No
2023/05/04,11:20,0.149,0.136,0.215,0.211,0.214,0.120,0.076,southeast,5.6,No
2023/05/04,11:30,0.150,0.136,0.215,0.211,0.212,0.120,0.077,south-southeast,6.2,No
2023/05/04,11:40,0.150,0.135,0.216,0.211,0.212,0.120,0.077,south-southeast,5.5,No
2023/05/04,11:50,0.150,0.135,0.216,0.210,0.211,0.120,0.078,southeast,3.5,No
2023/05/04,12:00,0.149,0.136,0.215,0.210,0.212,0.120,0.077,south-southeast,5.7,No
2023/05/04,12:10,0.148,0.136,0.215,0.211,0.210,0.120,0.077,south-southeast,5.8,No
2023/05/04,12:20,0.149,0.136,0.216,0.211,0.211,0.121,0.077,southeast,5.6,No
2023/05/04,12:30,0.148,0.135,0.215,0.210,0.211,0.121,0.078,south-southeast,7.3,No
2023/05/04,12:40,0.148,0.137,0.216,0.210,0.210,0.121,0.078,south-southeast,7.6,No
2023/05/04,12:50,0.149,0.137,0.215,0.211,0.211,0.120,0.077,south-southeast,8.1,No
2023/05/04,13:00,0.148,0.137,0.215,0.213,0.211,0.121,0.077,south-southeast,7.8,No
2023/05/04,13:10,0.149,0.136,0.215,0.215,0.212,0.121,0.078,south-southeast,8.6,No
2023/05/04,13:20,0.148,0.136,0.214,0.214,0.211,0.121,0.078,south-southeast,9.2,No
2023/05/04,13:30,0.149,0.135,0.216,0.212,0.211,0.121,0.077,south-southeast,9.0,No
2023/05/04,13:40,0.149,0.136,0.215,0.211,0.212,0.120,0.077,south-southeast,7.3,No
2023/05/04,13:50,0.150,0.137,0.215,0.213,0.211,0.121,0.077,south-southeast,6.8,No
2023/05/04,14:00,0.149,0.137,0.216,0.212,0.211,0.120,0.078,south,6.8,No
2023/05/04,14:10,0.149,0.137,0.216,0.211,0.211,0.119,0.077,south,7.9,No
2023/05/04,14:20,0.149,0.137,0.217,0.210,0.213,0.120,0.077,south-southeast,8.2,No
2023/05/04,14:30,0.149,0.136,0.217,0.211,0.212,0.121,0.077,south-southeast,8.5,No
2023/05/04,14:40,0.149,0.136,0.216,0.211,0.212,0.121,0.077,south-southeast,8.7,No
2023/05/04,14:50,0.150,0.136,0.217,0.211,0.212,0.120,0.077,south-southeast,7.8,No
2023/05/04,15:00,0.150,0.136,0.217,0.210,0.212,0.120,0.077,south-southeast,9.0,No
2023/05/04,15:10,0.150,0.136,0.217,0.211,0.212,0.120,0.077,south-southeast,8.6,No
2023/05/04,15:20,0.150,0.138,0.217,0.215,0.212,0.121,0.077,south-southeast,9.2,No
2023/05/04,15:30,0.152,0.137,0.219,0.215,0.211,0.121,0.077,south-southeast,9.8,No
2023/05/04,15:40,0.152,0.135,0.218,0.214,0.211,0.121,0.077,south-southeast,8.4,No
2023/05/04,15:50,0.151,0.137,0.217,0.214,0.212,0.120,0.078,south-southeast,8.6,No
2023/05/04,16:00,0.149,0.137,0.219,0.215,0.214,0.120,0.077,south-southeast,8.9,No
2023/05/04,16:10,0.151,0.137,0.217,0.213,0.214,0.121,0.077,south-southeast,8.9,No
2023/05/04,16:20,0.151,0.138,0.218,0.215,0.215,0.122,0.077,south-southeast,8.7,No
2023/05/04,16:30,0.151,0.137,0.219,0.215,0.213,0.121,0.078,south-southeast,9.8,No
2023/05/04,16:40,0.149,0.136,0.218,0.212,0.212,0.121,0.078,south-southeast,9.0,No
2023/05/04,16:50,0.150,0.137,0.219,0.215,0.215,0.121,0.077,south-southeast,9.5,No
2023/05/04,17:00,0.152,0.137,0.217,0.215,0.214,0.121,0.077,south-southeast,10.1,No
2023/05/04,17:10,0.151,0.136,0.218,0.215,0.212,0.121,0.077,south-southeast,9.5,No
2023/05/04,17:20,0.152,0.137,0.218,0.213,0.214,0.121,0.077,south-southeast,11.2,No
2023/05/04,17:30,0.151,0.137,0.217,0.213,0.215,0.121,0.078,south-southeast,9.0,No
2023/05/04,17:40,0.150,0.136,0.218,0.216,0.213,0.121,0.077,south-southeast,9.2,No
2023/05/04,17:50,0.152,0.137,0.216,0.213,0.217,0.121,0.078,south,9.5,No
2023/05/04,18:00,0.149,0.137,0.218,0.216,0.213,0.121,0.078,south-southeast,9.2,No
2023/05/04,18:10,0.152,0.137,0.217,0.214,0.215,0.120,0.078,south-southeast,8.2,No
2023/05/04,18:20,0.150,0.136,0.219,0.215,0.214,0.121,0.077,south-southeast,7.4,No
2023/05/04,18:30,0.152,0.137,0.218,0.213,0.213,0.120,0.077,south,6.8,No
2023/05/04,18:40,0.151,0.137,0.218,0.215,0.215,0.122,0.078,south,6.3,No
2023/05/04,18:50,0.151,0.137,0.218,0.213,0.213,0.120,0.077,south,5.6,No
2023/05/04,19:00,0.150,0.137,0.218,0.215,0.214,0.121,0.078,south,6.8,No
2023/05/04,19:10,0.151,0.138,0.218,0.214,0.214,0.121,0.077,south,6.2,Yes
2023/05/04,19:20,0.152,0.137,0.218,0.215,0.214,0.121,0.078,south,5.6,No
2023/05/04,19:30,0.152,0.137,0.219,0.214,0.212,0.120,0.078,south,6.1,No
2023/05/04,19:40,0.152,0.138,0.218,0.216,0.215,0.121,0.078,south,5.0,No
2023/05/04,19:50,0.152,0.136,0.219,0.215,0.213,0.121,0.077,south,5.0,No
2023/05/04,20:00,0.152,0.137,0.216,0.215,0.215,0.121,0.077,south-southwest,4.6,No
2023/05/04,20:10,0.151,0.138,0.220,0.214,0.215,0.121,0.077,south-southwest,1.8,No
2023/05/04,20:20,0.152,0.137,0.219,0.216,0.215,0.121,0.078,south-southwest,3.0,No
2023/05/04,20:30,0.151,0.138,0.220,0.214,0.214,0.121,0.078,southwest,1.6,No
2023/05/04,20:40,0.152,0.137,0.219,0.216,0.214,0.122,0.078,west-southwest,0.9,No
2023/05/04,20:50,0.152,0.138,0.219,0.216,0.214,0.122,0.079,west,1.5,No
2023/05/04,21:00,0.152,0.137,0.220,0.215,0.215,0.122,0.078,west,1.2,No
2023/05/04,21:10,0.152,0.138,0.218,0.216,0.214,0.122,0.078,west-northwest,1.1,No
2023/05/04,21:20,0.152,0.138,0.219,0.215,0.215,0.122,0.078,west,1.6,No
2023/05/04,21:30,0.152,0.138,0.220,0.215,0.214,0.122,0.079,west,2.2,No
2023/05/04,21:40,0.152,0.138,0.218,0.215,0.213,0.122,0.079,southwest,2.5,No
2023/05/04,21:50,0.152,0.137,0.219,0.216,0.215,0.123,0.078,west,2.2,No
2023/05/04,22:00,0.151,0.137,0.219,0.216,0.215,0.122,0.078,west,3.3,No
2023/05/04,22:10,0.152,0.138,0.219,0.215,0.213,0.122,0.078,west,5.6,No
2023/05/04,22:20,0.152,0.137,0.219,0.216,0.214,0.122,0.079,west,5.7,No
2023/05/04,22:30,0.151,0.137,0.219,0.215,0.216,0.121,0.078,west,5.9,No
2023/05/04,22:40,0.153,0.137,0.220,0.215,0.212,0.121,0.078,west-northwest,4.5,No
2023/05/04,22:50,0.151,0.138,0.220,0.215,0.214,0.121,0.078,west-southwest,4.7,No
2023/05/04,23:00,0.152,0.138,0.217,0.216,0.213,0.122,0.077,west,4.2,No
2023/05/04,23:10,0.151,0.138,0.219,0.214,0.215,0.123,0.078,southeast,0.9,No
2023/05/04,23:20,0.151,0.136,0.218,0.215,0.213,0.122,0.079,south-southeast,1.6,No
2023/05/04,23:30,0.151,0.138,0.219,0.216,0.215,0.122,0.078,west,0.9,No
2023/05/04,23:40,0.152,0.138,0.218,0.215,0.213,0.122,0.079,-,CALM,No
2023/05/04,23:50,0.152,0.138,0.219,0.215,0.216,0.121,0.078,-,CALM,No
